TimeCST,TemperatureF,Dew PointF,Humidity,Sea Level PressureIn,VisibilityMPH,Wind Direction,Wind SpeedMPH,Gust SpeedMPH,PrecipitationIn,Events,Conditions,WindDirDegrees,DateUTC
12:18 AM,21.7,17.6,84,29.82,10.0,West,9.2,-,N/A,,Clear,260,2013-02-13 06:18:00
12:38 AM,21.7,17.6,84,29.82,10.0,West,8.1,-,N/A,,Mostly Cloudy,260,2013-02-13 06:38:00
12:57 AM,22.1,18.1,85,29.81,10.0,West,3.5,-,N/A,,Overcast,260,2013-02-13 06:57:00
1:17 AM,23.0,18.9,84,29.81,10.0,West,5.8,-,N/A,,Overcast,270,2013-02-13 07:17:00
1:38 AM,24.1,19.6,83,29.79,10.0,West,6.9,-,N/A,,Overcast,260,2013-02-13 07:38:00
1:58 AM,24.8,20.3,83,29.79,10.0,Calm,Calm,-,N/A,,Overcast,0,2013-02-13 07:58:00
2:18 AM,25.5,20.8,82,29.79,10.0,Calm,Calm,-,N/A,,Overcast,0,2013-02-13 08:18:00
2:38 AM,25.9,21.4,83,29.79,10.0,Calm,Calm,-,N/A,,Overcast,0,2013-02-13 08:38:00
2:58 AM,26.6,22.1,83,29.79,10.0,Calm,Calm,-,N/A,,Overcast,0,2013-02-13 08:58:00
3:17 AM,27.5,22.5,81,29.78,10.0,West,4.6,-,N/A,,Overcast,260,2013-02-13 09:17:00
3:38 AM,27.1,22.5,83,29.78,10.0,Calm,Calm,-,N/A,,Overcast,0,2013-02-13 09:38:00
3:57 AM,27.5,22.6,82,29.77,10.0,Calm,Calm,-,N/A,,Overcast,0,2013-02-13 09:57:00
4:18 AM,27.7,22.8,82,29.77,10.0,Calm,Calm,-,N/A,,Overcast,0,2013-02-13 10:18:00
4:38 AM,27.5,22.6,82,29.76,10.0,Calm,Calm,-,N/A,,Overcast,0,2013-02-13 10:38:00
4:57 AM,27.5,22.6,82,29.76,10.0,West,3.5,-,N/A,,Overcast,260,2013-02-13 10:57:00
5:18 AM,28.2,22.5,79,29.75,10.0,Calm,Calm,-,N/A,,Overcast,0,2013-02-13 11:18:00
5:38 AM,28.0,21.9,78,29.76,10.0,Calm,Calm,-,N/A,,Scattered Clouds,0,2013-02-13 11:38:00
5:57 AM,26.1,20.8,81,29.75,10.0,WSW,9.2,-,N/A,,Scattered Clouds,240,2013-02-13 11:57:00
6:17 AM,25.7,21.0,82,29.75,10.0,WSW,9.2,-,N/A,,Clear,240,2013-02-13 12:17:00
6:37 AM,25.9,20.7,81,29.74,10.0,SW,6.9,-,N/A,,Clear,230,2013-02-13 12:37:00
6:58 AM,23.9,19.4,83,29.74,10.0,SW,6.9,-,N/A,,Clear,230,2013-02-13 12:58:00
7:18 AM,22.6,18.5,84,29.73,10.0,SW,10.4,-,N/A,,Clear,230,2013-02-13 13:18:00
7:37 AM,23.0,18.7,84,29.74,10.0,WSW,10.4,-,N/A,,Clear,240,2013-02-13 13:37:00
7:58 AM,24.6,19.9,82,29.73,10.0,SW,11.5,-,N/A,,Mostly Cloudy,230,2013-02-13 13:58:00
8:17 AM,25.7,20.7,81,29.72,10.0,SW,10.4,-,N/A,,Mostly Cloudy,230,2013-02-13 14:17:00
8:38 AM,30.0,23.0,75,29.72,10.0,WSW,11.5,-,N/A,,Scattered Clouds,240,2013-02-13 14:38:00
8:58 AM,29.1,22.1,75,29.72,10.0,SW,12.7,-,N/A,,Clear,230,2013-02-13 14:58:00
9:17 AM,29.8,22.3,73,29.70,10.0,SW,11.5,-,N/A,,Clear,220,2013-02-13 15:17:00
9:38 AM,30.9,22.6,71,29.69,10.0,SW,13.8,-,N/A,,Clear,220,2013-02-13 15:38:00
9:58 AM,32.0,23.5,71,29.69,10.0,SW,12.7,-,N/A,,Clear,230,2013-02-13 15:58:00
10:18 AM,32.9,24.4,71,29.69,10.0,SW,11.5,-,N/A,,Clear,230,2013-02-13 16:18:00
10:37 AM,33.8,24.8,70,29.69,10.0,SW,13.8,-,N/A,,Clear,230,2013-02-13 16:37:00
10:57 AM,34.5,25.5,70,29.69,10.0,SW,11.5,-,N/A,,Clear,230,2013-02-13 16:57:00
11:18 AM,34.7,25.9,70,29.69,10.0,WSW,12.7,-,N/A,,Clear,240,2013-02-13 17:18:00
11:38 AM,34.7,26.1,71,29.69,10.0,SW,13.8,-,N/A,,Clear,230,2013-02-13 17:38:00
11:58 AM,35.6,26.4,69,29.68,10.0,WSW,13.8,-,N/A,,Mostly Cloudy,240,2013-02-13 17:58:00
12:18 PM,34.7,26.4,72,29.66,10.0,SW,15.0,-,0.01,,Overcast,230,2013-02-13 18:18:00
12:38 PM,33.8,26.2,74,29.65,10.0,SW,12.7,19.6,0.03,,Scattered Clouds,230,2013-02-13 18:38:00
12:57 PM,34.7,26.6,72,29.64,10.0,SW,13.8,-,0.06,,Scattered Clouds,230,2013-02-13 18:57:00
1:18 PM,34.3,26.6,73,29.63,10.0,SW,15.0,-,0.03,,Mostly Cloudy,220,2013-02-13 19:18:00
1:38 PM,33.8,27.1,77,29.63,10.0,WSW,15.0,-,0.05,,Mostly Cloudy,240,2013-02-13 19:38:00
1:57 PM,33.8,27.1,77,29.63,10.0,SW,13.8,-,0.06,,Overcast,230,2013-02-13 19:57:00
2:17 PM,33.8,26.8,75,29.62,10.0,SW,13.8,-,0.01,,Overcast,230,2013-02-13 20:17:00
2:38 PM,34.0,27.1,76,29.60,10.0,SW,15.0,-,0.04,,Overcast,220,2013-02-13 20:38:00
2:57 PM,34.2,27.3,76,29.60,10.0,SW,12.7,-,0.05,,Overcast,220,2013-02-13 20:57:00
3:18 PM,34.7,27.5,75,29.60,10.0,SW,16.1,-,0.02,,Overcast,220,2013-02-13 21:18:00
3:37 PM,34.7,28.0,77,29.59,10.0,SW,13.8,-,0.04,,Overcast,220,2013-02-13 21:37:00
3:57 PM,35.1,27.9,75,29.59,10.0,SW,15.0,-,0.05,,Overcast,230,2013-02-13 21:57:00
4:18 PM,34.9,28.2,77,29.59,10.0,SW,16.1,-,0.01,,Overcast,230,2013-02-13 22:18:00
4:37 PM,35.1,28.4,77,29.60,10.0,WSW,11.5,18.4,0.03,,Overcast,240,2013-02-13 22:37:00
4:58 PM,35.1,28.4,77,29.59,10.0,WSW,12.7,18.4,0.05,,Overcast,240,2013-02-13 22:58:00
5:17 PM,35.2,28.2,76,29.59,10.0,WSW,13.8,18.4,0.01,,Overcast,240,2013-02-13 23:17:00
5:38 PM,35.2,28.4,76,29.58,10.0,WSW,13.8,-,0.02,,Overcast,240,2013-02-13 23:38:00
5:58 PM,35.2,28.4,76,29.57,10.0,WSW,12.7,17.3,0.02,,Overcast,250,2013-02-13 23:58:00
6:17 PM,35.4,28.8,77,29.57,10.0,WSW,13.8,18.4,N/A,,Overcast,250,2013-02-14 00:17:00
6:37 PM,35.6,28.9,77,29.58,10.0,WSW,10.4,18.4,N/A,,Overcast,250,2013-02-14 00:37:00
6:57 PM,35.2,29.3,79,29.58,10.0,West,9.2,-,N/A,,Overcast,260,2013-02-14 00:57:00
7:18 PM,35.2,29.3,79,29.59,10.0,Calm,Calm,-,N/A,,Overcast,0,2013-02-14 01:18:00
7:38 PM,34.7,29.3,81,29.59,10.0,Calm,Calm,-,N/A,,Overcast,0,2013-02-14 01:38:00
7:58 PM,34.7,29.3,81,29.60,10.0,West,8.1,-,N/A,,Overcast,260,2013-02-14 01:58:00
8:17 PM,34.9,29.7,81,29.60,10.0,West,9.2,-,N/A,,Overcast,280,2013-02-14 02:17:00
8:37 PM,35.6,30.0,80,29.60,10.0,WNW,12.7,17.3,N/A,,Overcast,290,2013-02-14 02:37:00
8:57 PM,35.8,30.2,80,29.60,10.0,WNW,19.6,25.3,N/A,,Overcast,300,2013-02-14 02:57:00
9:18 PM,35.6,30.6,82,29.60,10.0,WNW,11.5,20.7,N/A,,Overcast,300,2013-02-14 03:18:00
9:37 PM,35.6,30.2,81,29.60,10.0,WNW,15.0,21.9,N/A,,Overcast,300,2013-02-14 03:37:00
9:58 PM,34.3,29.7,83,29.61,10.0,NW,26.5,32.2,N/A,,Overcast,310,2013-02-14 03:58:00
10:18 PM,32.0,29.8,92,29.62,10.0,NW,24.2,32.2,N/A,,Overcast,320,2013-02-14 04:18:00
10:37 PM,31.6,28.9,90,29.63,10.0,NW,23.0,31.1,N/A,,Overcast,320,2013-02-14 04:37:00
10:57 PM,31.1,28.2,89,29.64,10.0,NW,18.4,29.9,N/A,,Overcast,320,2013-02-14 04:57:00
11:18 PM,30.7,28.0,90,29.65,10.0,NW,19.6,27.6,N/A,,Overcast,320,2013-02-14 05:18:00
11:37 PM,30.2,27.9,91,29.66,7.0,NW,20.7,-,N/A,Snow,Light Snow,320,2013-02-14 05:37:00
11:57 PM,29.8,27.3,90,29.67,10.0,NW,19.6,27.6,N/A,,Overcast,320,2013-02-14 05:57:00